Weather History for KBXK - May, 2012

Change the Weather History Date:

Thursday, May 10, 2012

  Actual Average (KPHX) Record (KPHX)
Temperature  
Mean Temperature 78 °F 80 °F  
Max Temperature 95 °F 93 °F 111 °F (1934)
Min Temperature 60 °F 68 °F 46 °F (1930)
Degree Days  
Heating Degree Days 0 0  
Month to date heating degree days 0  
Since 1 July heating degree days 934  
Cooling Degree Days 12 15  
Month to date cooling degree days 140  
Year to date cooling degree days 495  
Growing Degree Days 28 (Base 50)    
Moisture  
Dew Point 40 °F    
Average Humidity 30    
Maximum Humidity 63    
Minimum Humidity 11    
Precipitation  
Precipitation 0.00 in 0.01 in 0.78 in (1944)
Month to date precipitation 0.04  
Year to date precipitation 3.14  
Snow  
Snow 0.00 in - - ()
Month to date snowfall  
Year to date snowfall  
Since 1 July snowfall  
Snow Depth -    
Sea Level Pressure  
Sea Level Pressure 29.80 in    
Wind  
Wind Speed 6 mph (South)    
Max Wind Speed 15 mph    
Max Gust Speed 17 mph    
Visibility 10 miles    
Events      
T = Trace of Precipitation, MM = Missing Value Source: NWS Daily Summary

Daily Weather History Graph

Daily Weather History Graph

Search for Another Location

Airport or City:

Trip Planner

Search our weather history database for the weather conditions in past years. The results will help you decide how hot, cold, wet, or windy it might be!

Date:

Astronomy

May. 10, 2012 Rise Set
Actual Time 5:33 AM MST 7:20 PM MST
Civil Twilight 5:06 AM MST 7:47 PM MST
Nautical Twilight 4:34 AM MST 8:20 PM MST
Astronomical Twilight 3:59 AM MST 8:55 PM MST
Moon No Moon Rise 10:02 AM MST (5/10)
Length of Visible Light 14h 41m
Length of Day
13h 46m
Waning Gibbous, 72% of the Moon is Illuminated
May 10
Waning Gibbous
May 12
Last Quarter
May 20
New
May 28
First Quarter
Jun 4
Full

Hourly Weather History & Observations

Time (MST) Temp. Dew Point Humidity Pressure Visibility Wind Dir Wind Speed Gust Speed Precip Events Conditions
12:15 AM 69.8 °F 42.8 °F 38% 29.87 in 10.0 mi NNE 5.8 mph - N/A   Overcast
12:35 AM 68.0 °F 42.8 °F 40% 29.87 in 10.0 mi Calm Calm - N/A   Overcast
12:55 AM 66.2 °F 46.4 °F 49% 29.87 in 10.0 mi East 4.6 mph - N/A   Overcast
1:15 AM 66.2 °F 46.4 °F 49% 29.86 in 10.0 mi East 4.6 mph - N/A   Overcast
1:35 AM 64.4 °F 48.2 °F 56% 29.86 in 10.0 mi East 4.6 mph - N/A   Overcast
1:55 AM 64.4 °F 48.2 °F 56% 29.86 in 10.0 mi SSE 5.8 mph - N/A   Overcast
2:15 AM 60.8 °F 48.2 °F 63% 29.86 in 10.0 mi Calm Calm - N/A   Overcast
2:35 AM 62.6 °F 48.2 °F 59% 29.86 in 10.0 mi East 4.6 mph - N/A   Overcast
2:55 AM 64.4 °F 48.2 °F 56% 29.86 in 10.0 mi ENE 4.6 mph - N/A   Overcast
3:15 AM 62.6 °F 46.4 °F 55% 29.86 in 10.0 mi NNW 4.6 mph - N/A   Overcast
3:55 AM 62.6 °F 41.0 °F 45% 29.85 in 10.0 mi NNE 5.8 mph - N/A   Overcast
4:15 AM 62.6 °F 42.8 °F 48% 29.86 in 10.0 mi North 5.8 mph - N/A   Overcast
4:35 AM 60.8 °F 44.6 °F 55% 29.86 in 10.0 mi Calm Calm - N/A   Overcast
4:55 AM 62.6 °F 44.6 °F 52% 29.87 in 10.0 mi East 3.5 mph - N/A   Overcast
5:15 AM 62.6 °F 48.2 °F 59% 29.87 in 10.0 mi East 4.6 mph - N/A   Scattered Clouds
5:35 AM 62.6 °F 48.2 °F 59% 29.87 in 10.0 mi East 6.9 mph - N/A   Clear
5:55 AM 62.6 °F 48.2 °F 59% 29.87 in 10.0 mi NE 4.6 mph - N/A   Clear
6:15 AM 62.6 °F 46.4 °F 55% 29.88 in 9.0 mi NNW 3.5 mph - N/A   Clear
6:35 AM 66.2 °F 46.4 °F 49% 29.88 in 8.0 mi North 4.6 mph - N/A   Clear
6:55 AM 68.0 °F 46.4 °F 46% 29.89 in 10.0 mi ENE 3.5 mph - N/A   Clear
7:15 AM 68.0 °F 48.2 °F 49% 29.89 in 10.0 mi ESE 8.1 mph - N/A   Clear
7:55 AM 71.6 °F 50.0 °F 46% 29.89 in 10.0 mi East 8.1 mph - N/A   Clear
8:15 AM 73.4 °F 48.2 °F 41% 29.89 in 10.0 mi ESE 6.9 mph - N/A   Clear
8:55 AM 75.2 °F 50.0 °F 41% 29.88 in 10.0 mi ESE 10.4 mph - N/A   Clear
9:15 AM 75.2 °F 48.2 °F 38% 29.88 in 9.0 mi ESE 10.4 mph - N/A   Clear
9:35 AM 77.0 °F 48.2 °F 36% 29.88 in 10.0 mi ESE 9.2 mph - N/A   Clear
10:15 AM 78.8 °F 46.4 °F 32% 29.88 in 10.0 mi SSE 5.8 mph - N/A   Clear
10:35 AM 80.6 °F 46.4 °F 30% 29.87 in 10.0 mi SE 9.2 mph - N/A   Clear
10:55 AM 80.6 °F 44.6 °F 28% 29.86 in 10.0 mi SSE 6.9 mph - N/A   Clear
11:15 AM 80.6 °F 42.8 °F 26% 29.85 in 10.0 mi SE 5.8 mph - N/A   Clear
11:35 AM 82.4 °F 44.6 °F 26% 29.85 in 10.0 mi SE 10.4 mph - N/A   Clear
11:55 AM 82.4 °F 41.0 °F 23% 29.84 in 10.0 mi South 5.8 mph - N/A   Clear
12:15 PM 84.2 °F 41.0 °F 22% 29.83 in 10.0 mi Calm Calm - N/A   Clear
12:35 PM 84.2 °F 41.0 °F 22% 29.82 in 10.0 mi ESE 3.5 mph - N/A   Clear
12:55 PM 86.0 °F 41.0 °F 20% 29.81 in 10.0 mi East 5.8 mph - N/A   Clear
1:15 PM 86.0 °F 41.0 °F 20% 29.80 in 10.0 mi East 4.6 mph - N/A   Clear
1:35 PM 87.8 °F 41.0 °F 19% 29.79 in 10.0 mi SSE 5.8 mph - N/A   Clear
1:55 PM 87.8 °F 41.0 °F 19% 29.79 in 10.0 mi SSW 4.6 mph - N/A   Clear
2:15 PM 89.6 °F 37.4 °F 16% 29.78 in 10.0 mi West 5.8 mph - N/A   Clear
2:35 PM 91.4 °F 39.2 °F 16% 29.76 in 10.0 mi SSE 8.1 mph - N/A   Clear
2:55 PM 93.2 °F 35.6 °F 13% 29.75 in 10.0 mi SW 11.5 mph 17.3 mph N/A   Clear
3:15 PM 93.2 °F 32.0 °F 11% 29.73 in 10.0 mi West 10.4 mph - N/A   Clear
3:35 PM 93.2 °F 32.0 °F 11% 29.72 in 10.0 mi WSW 15.0 mph - N/A   Clear
3:55 PM 93.2 °F 32.0 °F 11% 29.72 in 10.0 mi SW 9.2 mph - N/A   Clear
4:15 PM 95.0 °F 32.0 °F 11% 29.71 in 10.0 mi SW 10.4 mph - N/A   Clear
4:35 PM 95.0 °F 33.8 °F 12% 29.71 in 10.0 mi SW 8.1 mph - N/A   Clear
4:55 PM 95.0 °F 32.0 °F 11% 29.71 in 10.0 mi SSW 10.4 mph - N/A   Clear
5:15 PM 95.0 °F 32.0 °F 11% 29.70 in 10.0 mi WSW 6.9 mph - N/A   Clear
5:35 PM 93.2 °F 32.0 °F 11% 29.70 in 10.0 mi SW 10.4 mph - N/A   Clear
5:55 PM 93.2 °F 33.8 °F 12% 29.69 in 10.0 mi SW 12.7 mph 17.3 mph N/A   Clear
6:15 PM 91.4 °F 35.6 °F 14% 29.69 in 10.0 mi WSW 12.7 mph - N/A   Clear
6:35 PM 91.4 °F 33.8 °F 13% 29.69 in 10.0 mi SW 11.5 mph - N/A   Clear
6:55 PM 89.6 °F 35.6 °F 15% 29.69 in 10.0 mi SSW 9.2 mph - N/A   Clear
7:15 PM 86.0 °F 37.4 °F 18% 29.70 in 10.0 mi SSW 6.9 mph - N/A   Clear
7:35 PM 84.2 °F 37.4 °F 19% 29.70 in 10.0 mi SSW 6.9 mph - N/A   Clear
7:55 PM 86.0 °F 35.6 °F 17% 29.71 in 10.0 mi SSW 8.1 mph - N/A   Clear
8:15 PM 82.4 °F 37.4 °F 20% 29.71 in 10.0 mi SSW 6.9 mph - N/A   Clear
8:35 PM 80.6 °F 37.4 °F 21% 29.72 in 10.0 mi SSW 4.6 mph - N/A   Clear
8:55 PM 80.6 °F 39.2 °F 23% 29.72 in 10.0 mi SSW 5.8 mph - N/A   Clear
9:15 PM 80.6 °F 35.6 °F 20% 29.72 in 10.0 mi SSW 6.9 mph - N/A   Clear
9:35 PM 78.8 °F 33.8 °F 20% 29.73 in 10.0 mi SW 5.8 mph - N/A   Clear
9:55 PM 80.6 °F 32.0 °F 17% 29.73 in 10.0 mi SW 8.1 mph - N/A   Clear
10:15 PM 77.0 °F 32.0 °F 19% 29.73 in 10.0 mi WSW 3.5 mph - N/A   Clear
10:35 PM 77.0 °F 28.4 °F 17% 29.74 in 10.0 mi West 4.6 mph - N/A   Clear
10:55 PM 75.2 °F 28.4 °F 18% 29.75 in 10.0 mi NW 5.8 mph - N/A   Clear
11:15 PM 77.0 °F 28.4 °F 17% 29.75 in 10.0 mi WSW 8.1 mph - N/A   Clear
11:35 PM 77.0 °F 30.2 °F 18% 29.75 in 10.0 mi SW 8.1 mph - N/A   Clear
11:55 PM 75.2 °F 33.8 °F 22% 29.75 in 10.0 mi WSW 9.2 mph - N/A   Clear